#timestamp,LO_Frequency,Hit,StdDev 
1512378015.6,286046997.4,N
1512378035.4,286046999.4,N
1512378055.2,286047000.7,N
1512378075.0,286047003.7,N
1512378075.9,286047003.7,N
1512378095.8,286047007.3,N
1512378115.6,286047009.2,Y
1512378135.4,286047010.5,P
1512378155.3,286047010.5,N
1512378175.1,286047005.0,N
1512378195.8,286047007.0,N
1512378215.7,286047008.6,N
1512378235.5,286047006.5,N
1512378255.3,286047006.9,N
1512378275.2,286047006.0,N
1512378295.9,286047003.0,N
1512378315.7,286047002.6,N
1512378335.6,286046996.9,N
1512378355.4,286046999.9,N
1512378375.2,286046999.8,N
1512378395.0,286047003.1,N
1512378396.0,286047003.1,N
1512378415.8,286047003.2,N
1512378435.6,286047002.5,N
1512378455.4,286047000.3,N
1512378475.3,286047000.5,N
1512378495.1,286046997.4,N
1512378515.8,286046996.4,N
1512378535.7,286046992.9,N
1512378555.5,286046988.6,N
1512378575.3,286046987.3,N
1512378595.2,286046987.0,N
1512378615.9,286046992.9,N
1512378635.7,286046988.7,N
1512378655.6,286046985.3,N
1512378675.4,286046989.9,N
1512378695.2,286046989.3,N
1512378715.1,286046989.8,N
1512378716.0,286046989.8,N
1512378735.8,286046987.5,N
1512378755.6,286046989.4,N
1512378775.4,286046990.0,N
1512378795.3,286046994.4,N
1512378815.1,286046994.8,N
1512378835.8,286046993.9,N
1512378855.7,286046993.5,N
1512378875.5,286046994.6,N
1512378895.3,286046995.5,N
1512378915.2,286046999.1,N
1512378935.9,286046999.5,N
1512378955.7,286047005.9,N
1512378975.6,286047003.3,N
1512378995.4,286047005.7,N
1512379015.2,286047007.6,N
1512379035.1,286047006.0,N
1512379036.0,286047006.0,N
1512379055.8,286047003.3,N
1512379075.6,286047001.3,N
1512379095.5,286047003.3,N
1512379115.3,286047007.0,N
1512379135.1,286047006.8,N
1512379155.8,286047001.6,N
1512379175.7,286047001.1,N
1512379195.5,286046999.1,N
1512379215.3,286046996.6,N
1512379235.2,286047003.9,N
1512379255.0,286047003.6,N
1512379255.9,286047003.6,N
1512379275.7,286047003.9,N
1512379295.6,286047007.2,N
1512379315.4,286047007.2,N
1512379335.2,286047008.8,N
1512379355.1,286047010.0,N
1512379356.0,286047010.0,N
1512379375.8,286047010.5,N
1512379395.6,286047011.7,N
1512379415.5,286047011.7,N
1512379435.3,286047011.6,N
1512379455.1,286047009.8,N
1512379475.9,286047008.3,N
1512379495.7,286047010.8,N
1512379515.5,286047006.1,N
1512379535.3,286047008.6,N
1512379555.2,286047010.7,N
1512379575.0,286047010.8,N
1512379575.9,286047010.8,N
1512379595.7,286047010.5,N
1512379615.6,286047010.8,N
1512379635.4,286047011.5,N
1512379655.2,286047012.5,Y
1512379675.1,286047007.5,P
1512379676.0,286047007.5,P
1512379695.8,286047006.6,P
1512379715.7,286047003.4,Y
1512379735.5,286046998.0,P
1512379755.3,286046995.0,N
1512379775.1,286046999.2,N
1512379795.9,286046995.8,N
1512379815.7,286046992.6,N
1512379835.5,286046990.4,N
1512379855.4,286046993.1,N
1512379875.2,286046990.2,N
1512379895.0,286046992.0,N
1512379895.9,286046992.0,N
1512379915.8,286046989.1,N
1512379935.6,286046991.4,N
1512379955.4,286046991.9,N
1512379975.3,286046996.3,N
1512379995.1,286046991.7,N
1512379996.0,286046991.7,N
1512380015.8,286046993.0,N
1512380035.7,286046991.4,N
1512380055.5,286046985.5,Y
1512380075.3,286046991.8,P
1512380095.2,286046991.2,P
1512380115.9,286046988.6,P
1512380135.7,286046989.4,Y
1512380155.6,286046998.9,P
1512380175.4,286046996.8,N
1512380195.2,286046995.0,N
1512380215.1,286047002.7,N
1512380216.0,286047002.7,N
1512380235.8,286047004.0,N
1512380255.6,286047002.4,N
1512380275.4,286047000.2,N
1512380295.3,286047002.4,N
1512380315.1,286047001.6,N
1512380335.8,286047005.5,N
1512380355.7,286047002.0,N
1512380375.5,286047006.0,N
1512380395.3,286047005.6,N
1512380415.2,286047008.2,N
1512380435.9,286047011.7,N
1512380455.8,286047011.9,N
1512380475.6,286047012.1,N
1512380495.4,286047011.3,N
1512380515.2,286047009.8,N
1512380535.1,286047011.6,N
1512380536.0,286047011.6,N
1512380555.8,286047011.9,N
1512380575.6,286047011.3,N
1512380595.5,286047013.6,N
1512380615.3,286047009.7,N
1512380635.1,286047010.3,N
1512380655.9,286047006.4,N
1512380675.7,286047007.6,N
1512380695.5,286047002.9,N
1512380715.4,286047006.5,N
1512380735.2,286047004.5,N
1512380755.0,286047005.7,N
1512380755.9,286047005.7,N
1512380775.8,286047008.4,N
1512380795.6,286047010.1,N
1512380815.4,286047011.5,Y
1512380835.3,286046999.7,P
1512380855.1,286046998.1,N
1512380856.0,286046998.1,N
1512380875.8,286046997.7,N
1512380895.7,286046997.3,N
1512380915.5,286046996.9,N
1512380935.3,286046998.9,N
1512380955.1,286046994.3,N
1512380975.9,286046991.9,N
1512380995.7,286046992.4,N
1512381015.5,286046992.7,N
1512381035.4,286046987.0,Y
1512381055.2,286046988.5,P
1512381075.0,286046986.9,P
1512381075.9,286046986.9,N
1512381095.8,286046990.0,N
1512381115.6,286046987.9,Y
1512381135.4,286046998.2,P
1512381155.3,286046999.5,N
1512381175.1,286047001.1,N
1512381195.8,286047003.3,N
1512381215.7,286047001.7,N
1512381235.5,286047001.4,N
1512381255.3,286047002.8,N
1512381275.2,286047000.6,N
1512381295.9,286047000.3,N
1512381315.7,286047004.2,N
1512381335.6,286047004.0,N
1512381355.4,286047004.9,N
1512381375.2,286047001.3,N
1512381395.1,286047004.4,N
1512381396.0,286047004.4,N
1512381415.8,286047003.7,N
1512381435.6,286047005.5,N
1512381455.4,286047003.3,N
1512381475.3,286047007.1,N
1512381495.1,286047007.7,N
1512381515.8,286047009.4,N
1512381535.7,286047010.7,N
1512381555.5,286047010.7,N
1512381575.3,286047003.8,N
1512381595.2,286047003.5,N
